User: anonymous   Login
Location: Vancouver
(49.2500°N, 123.1330°W)
Time: 22:17:59
(UTC-07:00)
Language:

YAOGAN 6 - Orbit

View from above orbital plane
View from above orbital plane
View from above satellite
View from above satellite

Ground track
Ground track

The orbit data is extracted from the following two-line orbital elements,

1 34839U 09021A   17175.54804256 +.00000532 +00000-0 +23454-4 0  9996
2 34839 097.1435 225.7943 0027173 296.6474 063.1983 15.25663244453682
Epoch (UTC): 24 June 2017 13:09:10
Eccentricity: 0.0027173
inclination: 97.1435°
perigee height: 470 km
apogee height: 507 km
right ascension of ascending node: 225.7943°
argument of perigee: 296.6474°
revolutions per day: 15.25663244
mean anomaly at epoch: 63.1983°
orbit number at epoch: 45368

The dashed part of the orbit path shows where the satellite is in the earth's shadow,  

DLR